Fremont, NE

1:14 PM CDT on September 27, 2016 (GMT -0500)
Fremont Municipal

Weather History for KFET - February, 2014

Change the Weather History Date:

Tuesday, February 18, 2014

  Actual Average Record
Temperature  
Mean Temperature 50 °F -  
Max Temperature 66 °F 41 °F 68 °F (1981)
Min Temperature 32 °F 20 °F -14 °F (1978)
Degree Days  
Heating Degree Days 15    
Moisture  
Dew Point 26 °F    
Average Humidity 47    
Maximum Humidity 83    
Minimum Humidity 23    
Precipitation  
Precipitation 0.00 in - - ()
Sea Level Pressure  
Sea Level Pressure 29.73 in    
Wind  
Wind Speed 11 mph (WSW)    
Max Wind Speed 33 mph    
Max Gust Speed 40 mph    
Visibility 10 miles    
Events      
Averages and records for this station are not official NWS values.
T = Trace of Precipitation, MM = Missing Value Source: NWS Daily Summary

Daily Weather History Graph

Daily Weather History Graph

Search for Another Location

Airport or City:

Trip Planner

Search our weather history database for the weather conditions in past years. The results will help you decide how hot, cold, wet, or windy it might be!

Date:

Astronomy

Feb. 18, 2014 Rise Set
Actual Time 7:16 AM CST 6:03 PM CST
Civil Twilight 6:48 AM CST 6:31 PM CST
Nautical Twilight 6:16 AM CST 7:04 PM CST
Astronomical Twilight 5:44 AM CST 7:36 PM CST
Moon 10:01 PM CST (2/18) 8:46 AM CST (2/18)
Length of Visible Light 11h 43m
Length of Day
10h 46m
Waning Gibbous, 87% of the Moon is Illuminated
Feb 18
Waning Gibbous
Feb 22
Last Quarter
Mar 1
New
Mar 8
First Quarter
Mar 16
Full

Hourly Weather History & Observations

Time (CST) Temp. Windchill Dew Point Humidity Pressure Visibility Wind Dir Wind Speed Gust Speed Precip Events Conditions
12:15 AM 39.4 °F 35.2 °F 23.0 °F 52% 29.79 in 10.0 mi South 5.8 mph - N/A   Clear
12:35 AM 40.5 °F 34.6 °F 23.0 °F 50% 29.78 in 10.0 mi South 9.2 mph - N/A   Clear
12:55 AM 41.5 °F 35.0 °F 23.0 °F 48% 29.77 in 10.0 mi South 11.5 mph 17.3 mph N/A   Clear
1:15 AM 41.9 °F 35.4 °F 22.6 °F 46% 29.76 in 10.0 mi South 11.5 mph 18.4 mph N/A   Clear
1:35 AM 41.9 °F 35.4 °F 22.6 °F 46% 29.74 in 10.0 mi South 11.5 mph 18.4 mph N/A   Clear
1:55 AM 42.6 °F 37.2 °F 22.5 °F 45% 29.73 in 10.0 mi SSW 9.2 mph - N/A   Clear
2:15 AM 42.8 °F 38.6 °F 22.6 °F 45% 29.72 in 10.0 mi SSW 6.9 mph - N/A   Clear
2:35 AM 41.5 °F 37.1 °F 23.0 °F 48% 29.73 in 10.0 mi SSW 6.9 mph - N/A   Clear
2:55 AM 40.8 °F 36.2 °F 23.2 °F 50% 29.72 in 10.0 mi SSW 6.9 mph - N/A   Clear
3:15 AM 40.8 °F 35.6 °F 23.5 °F 50% 29.70 in 10.0 mi SSW 8.1 mph - N/A   Clear
3:35 AM 41.4 °F 34.3 °F 23.9 °F 50% 29.68 in 10.0 mi SSW 12.7 mph - N/A   Clear
3:55 AM 41.7 °F 35.2 °F 24.4 °F 50% 29.67 in 10.0 mi SSW 11.5 mph 16.1 mph N/A   Clear
4:15 AM 41.9 °F 35.4 °F 24.8 °F 51% 29.66 in 10.0 mi SSW 11.5 mph 17.3 mph N/A   Clear
4:35 AM 41.9 °F 35.0 °F 24.8 °F 51% 29.65 in 10.0 mi SSW 12.7 mph 18.4 mph N/A   Clear
4:55 AM 41.9 °F 34.3 °F 25.2 °F 52% 29.65 in 10.0 mi SSW 15.0 mph 21.9 mph N/A   Clear
5:15 AM 41.4 °F 34.3 °F 25.2 °F 53% 29.64 in 10.0 mi SW 12.7 mph 19.6 mph N/A   Clear
5:35 AM 41.7 °F 35.2 °F 25.0 °F 52% 29.65 in 10.0 mi SW 11.5 mph - N/A   Clear
5:55 AM 41.7 °F 36.1 °F 24.8 °F 51% 29.65 in 10.0 mi SW 9.2 mph - N/A   Clear
6:15 AM 42.1 °F 35.2 °F 24.6 °F 50% 29.64 in 10.0 mi SW 12.7 mph 17.3 mph N/A   Clear
6:35 AM 42.4 °F 34.7 °F 24.4 °F 49% 29.64 in 10.0 mi SW 16.1 mph - N/A   Clear
6:55 AM 42.3 °F 36.3 °F 24.4 °F 49% 29.64 in 10.0 mi WSW 10.4 mph 18.4 mph N/A   Clear
7:15 AM 40.8 °F 35.6 °F 24.6 °F 53% 29.65 in 10.0 mi WSW 8.1 mph - N/A   Clear
7:35 AM 41.2 °F 35.0 °F 24.3 °F 51% 29.64 in 10.0 mi SW 10.4 mph - N/A   Clear
7:55 AM 41.9 °F 36.3 °F 24.1 °F 49% 29.64 in 10.0 mi SW 9.2 mph - N/A   Clear
8:15 AM 42.8 °F 37.5 °F 24.1 °F 48% 29.65 in 10.0 mi SW 9.2 mph - N/A   Clear
8:35 AM 43.9 °F 37.5 °F 24.3 °F 46% 29.64 in 10.0 mi SW 12.7 mph - N/A   Clear
8:55 AM 45.0 °F 40.6 °F 24.3 °F 44% 29.64 in 10.0 mi SW 8.1 mph 16.1 mph N/A   Clear
9:15 AM 45.5 °F 40.8 °F 24.4 °F 44% 29.65 in 10.0 mi WSW 9.2 mph 16.1 mph N/A   Clear
9:35 AM 47.8 °F - 25.0 °F 41% 29.63 in 10.0 mi West 3.5 mph - N/A   Clear
9:55 AM 50.2 °F - 25.0 °F 37% 29.64 in 10.0 mi West 8.1 mph - N/A   Clear
10:15 AM 52.9 °F - 25.3 °F 34% 29.64 in 10.0 mi WSW 12.7 mph - N/A   Clear
10:35 AM 55.0 °F - 25.0 °F 31% 29.64 in 10.0 mi WSW 16.1 mph - N/A   Clear
10:55 AM 55.8 °F - 25.5 °F 31% 29.65 in 10.0 mi West 10.4 mph - N/A   Clear
11:15 AM 56.5 °F - 25.7 °F 31% 29.64 in 10.0 mi WSW 12.7 mph - N/A   Clear
11:35 AM 58.1 °F - 26.1 °F 29% 29.64 in 10.0 mi West 13.8 mph - N/A   Clear
11:55 AM 58.1 °F - 26.1 °F 29% 29.64 in 10.0 mi WSW 10.4 mph - N/A   Clear
12:15 PM 58.5 °F - 27.0 °F 30% 29.64 in 10.0 mi SW 11.5 mph - N/A   Clear
12:35 PM 58.6 °F - 26.6 °F 29% 29.64 in 10.0 mi West 8.1 mph - N/A   Clear
12:55 PM 59.0 °F - 26.6 °F 29% 29.64 in 10.0 mi West 12.7 mph - N/A   Clear
1:15 PM 58.1 °F - 26.4 °F 30% 29.63 in 10.0 mi West 9.2 mph - N/A   Clear
1:35 PM 57.7 °F - 26.8 °F 31% 29.64 in 10.0 mi West 9.2 mph - N/A   Clear
1:55 PM 61.0 °F - 27.3 °F 28% 29.64 in 10.0 mi West 13.8 mph - N/A   Clear
2:15 PM 62.2 °F - 28.0 °F 27% 29.64 in 10.0 mi WSW 10.4 mph - N/A   Clear
2:35 PM 64.4 °F - 28.2 °F 26% 29.64 in 10.0 mi West 11.5 mph - N/A   Clear
2:55 PM 65.5 °F - 28.4 °F 25% 29.64 in 10.0 mi West 17.3 mph 23.0 mph N/A   Clear
3:15 PM 66.2 °F - 27.1 °F 23% 29.67 in 10.0 mi NW 25.3 mph 31.1 mph N/A   Clear
3:35 PM 62.4 °F - 28.4 °F 28% 29.70 in 10.0 mi NW 33.4 mph 40.3 mph N/A   Clear
3:55 PM 61.0 °F - 29.7 °F 31% 29.72 in 10.0 mi NW 28.8 mph 36.8 mph N/A   Clear
4:15 PM 60.3 °F - 30.4 °F 32% 29.73 in 10.0 mi NNW 25.3 mph 34.5 mph N/A   Clear
4:35 PM 59.0 °F - 31.1 °F 35% 29.75 in 10.0 mi NW 28.8 mph 36.8 mph N/A   Clear
4:55 PM 57.2 °F - 31.3 °F 37% 29.77 in 10.0 mi NW 21.9 mph 35.7 mph N/A   Clear
5:15 PM 55.4 °F - 31.6 °F 40% 29.79 in 10.0 mi NNW 21.9 mph 29.9 mph N/A   Clear
5:35 PM 53.4 °F - 30.4 °F 41% 29.80 in 10.0 mi NW 19.6 mph 25.3 mph N/A   Clear
5:55 PM 52.2 °F - 30.2 °F 43% 29.83 in 10.0 mi NW 21.9 mph 32.2 mph N/A   Clear
6:15 PM 48.9 °F - 30.6 °F 49% 29.84 in 10.0 mi NW 11.5 mph - N/A   Clear
6:35 PM 44.2 °F 40.3 °F 29.8 °F 57% 29.85 in 10.0 mi WNW 6.9 mph - N/A   Clear
6:55 PM 41.2 °F 36.6 °F 28.4 °F 60% 29.86 in 10.0 mi WNW 6.9 mph - N/A   Clear
7:15 PM 39.2 °F 34.2 °F 27.5 °F 63% 29.87 in 10.0 mi West 6.9 mph - N/A   Clear
7:35 PM 36.7 °F 32.0 °F 26.4 °F 66% 29.88 in 10.0 mi West 5.8 mph - N/A   Clear
7:55 PM 35.8 °F 29.4 °F 26.6 °F 69% 29.89 in 10.0 mi West 8.1 mph - N/A   Clear
8:15 PM 34.9 °F 29.0 °F 26.4 °F 71% 29.89 in 10.0 mi West 6.9 mph - N/A   Clear
8:35 PM 35.6 °F 29.2 °F 26.2 °F 69% 29.90 in 10.0 mi West 8.1 mph - N/A   Clear
8:55 PM 34.3 °F 26.5 °F 25.2 °F 69% 29.91 in 10.0 mi WNW 10.4 mph - N/A   Clear
9:15 PM 37.8 °F 30.7 °F 26.4 °F 64% 29.92 in 10.0 mi WNW 10.4 mph - N/A   Clear
9:35 PM 37.2 °F 30.0 °F 26.8 °F 66% 29.92 in 10.0 mi WNW 10.4 mph - N/A   Clear
9:55 PM 39.6 °F 32.5 °F 28.0 °F 63% 29.94 in 10.0 mi NW 11.5 mph 17.3 mph N/A   Clear
10:15 PM 36.5 °F 30.3 °F 27.1 °F 69% 29.94 in 10.0 mi WNW 8.1 mph - N/A   Clear
10:35 PM 38.1 °F 30.7 °F 28.4 °F 68% 29.94 in 10.0 mi WNW 11.5 mph - N/A   Clear
10:55 PM 36.9 °F 30.7 °F 28.9 °F 73% 29.95 in 10.0 mi West 8.1 mph - N/A   Clear
11:15 PM 34.7 °F 28.1 °F 27.7 °F 76% 29.94 in 10.0 mi West 8.1 mph - N/A   Clear
11:55 PM 32.2 °F 25.0 °F 27.7 °F 83% 29.94 in 10.0 mi West 8.1 mph - N/A   Clear